Arctic Village, AK

3:00 PM AKDT on July 28, 2016 (GMT -0800)
Arctic Village

Weather History for PARC - April, 2013

Change the Weather History Date:

Saturday, April 27, 2013

  Actual Average Record
Temperature  
Mean Temperature 8 °F -  
Max Temperature 15 °F 35 °F 50 °F (1991)
Min Temperature 0 °F 5 °F -18 °F (1972)
Degree Days  
Heating Degree Days 58    
Moisture  
Dew Point -11 °F    
Average Humidity 40    
Maximum Humidity 78    
Minimum Humidity 21    
Precipitation  
Precipitation 0.00 in - - ()
Sea Level Pressure  
Sea Level Pressure 29.88 in    
Wind  
Wind Speed 5 mph (ENE)    
Max Wind Speed 13 mph    
Max Gust Speed 18 mph    
Visibility 10 miles    
Events      
Averages and records for this station are not official NWS values.
T = Trace of Precipitation, MM = Missing Value Source: NWS Daily Summary

Daily Weather History Graph

Daily Weather History Graph

Search for Another Location

Airport or City:

Trip Planner

Search our weather history database for the weather conditions in past years. The results will help you decide how hot, cold, wet, or windy it might be!

Date:

Astronomy

Apr. 27, 2013 Rise Set
Actual Time 4:54 AM AKDT 10:28 PM AKDT
Civil Twilight 3:18 AM AKDT 12:08 AM AKDT
Nautical Twilight Sun does not set Sun does not set
Astronomical Twilight Sun does not set Sun does not set
Moon 1:02 AM AKDT (4/27) 5:12 AM AKDT (4/27)
Length of Visible Light 20h 49m
Length of Day
17h 33m
Waning Gibbous, 94% of the Moon is Illuminated
Apr 27
Waning Gibbous
May 2
Last Quarter
May 9
New
May 17
First Quarter
May 24
Full

Hourly Weather History & Observations

Time (AKDT) Temp. Windchill Dew Point Humidity Pressure Visibility Wind Dir Wind Speed Gust Speed Precip Events Conditions
12:16 AM 10.4 °F - -5.8 °F 48% 29.65 in 10.0 mi Calm Calm - N/A   Clear
12:36 AM 8.6 °F - -14.8 °F 34% 29.66 in 10.0 mi Calm Calm - N/A   Scattered Clouds
12:56 AM 6.8 °F - -11.2 °F 44% 29.67 in 10.0 mi Calm Calm - N/A   Scattered Clouds
1:16 AM 5.0 °F - -5.8 °F 61% 29.68 in 10.0 mi Calm Calm - N/A   Partly Cloudy
1:36 AM 5.0 °F - - N/A% 29.69 in 10.0 mi Calm Calm - N/A   Clear
1:56 AM 5.0 °F - -0.4 °F 78% 29.70 in 10.0 mi Calm Calm - N/A   Clear
2:16 AM 3.2 °F - -14.8 °F 43% 29.71 in 10.0 mi Calm Calm - N/A   Clear
2:36 AM 1.4 °F - -18.4 °F 39% 29.72 in 10.0 mi Calm Calm - N/A   Clear
2:56 AM 1.4 °F - - N/A% 29.72 in 10.0 mi Calm Calm - N/A   Clear
3:16 AM -0.4 °F -12.0 °F -23.8 °F 32% 29.73 in 10.0 mi NE 5.8 mph - N/A   Clear
3:36 AM 5.0 °F -9.1 °F -2.2 °F 72% 29.74 in 10.0 mi NNE 9.2 mph - N/A   Clear
3:56 AM 1.4 °F -14.5 °F -14.8 °F 47% 29.75 in 10.0 mi North 10.4 mph - N/A   Clear
4:16 AM 3.2 °F -9.1 °F -16.6 °F 39% 29.75 in 10.0 mi NNE 6.9 mph - N/A   Clear
4:36 AM 3.2 °F -9.1 °F -13.0 °F 47% 29.77 in 10.0 mi NE 6.9 mph - N/A   Clear
4:56 AM 3.2 °F -9.1 °F -14.8 °F 43% 29.78 in 10.0 mi ENE 6.9 mph - N/A   Clear
5:16 AM 3.2 °F -10.3 °F -7.6 °F 61% 29.79 in 10.0 mi NE 8.1 mph - N/A   Clear
5:36 AM 5.0 °F -8.1 °F -14.8 °F 40% 29.80 in 10.0 mi NNE 8.1 mph - N/A   Clear
5:56 AM 3.2 °F -13.1 °F -7.6 °F 61% 29.80 in 10.0 mi North 11.5 mph - N/A   Clear
6:16 AM 5.0 °F -8.1 °F -11.2 °F 47% 29.81 in 10.0 mi NNE 8.1 mph - N/A   Clear
6:36 AM 6.8 °F -3.5 °F -5.8 °F 56% 29.82 in 10.0 mi East 5.8 mph - N/A   Clear
6:56 AM 5.0 °F -5.6 °F -14.8 °F 40% 29.83 in 10.0 mi ENE 5.8 mph - N/A   Clear
7:16 AM 6.8 °F -4.8 °F -5.8 °F 56% 29.84 in 10.0 mi NE 6.9 mph - N/A   Clear
7:36 AM 8.6 °F -3.7 °F -11.2 °F 40% 29.85 in 10.0 mi NE 8.1 mph - N/A   Clear
7:56 AM 8.6 °F -5.5 °F -9.4 °F 44% 29.86 in 10.0 mi NNE 10.4 mph - N/A   Clear
8:16 AM 10.4 °F -4.1 °F -11.2 °F 37% 29.86 in 10.0 mi NNE 11.5 mph 16.1 mph N/A   Clear
8:36 AM 10.4 °F -4.1 °F -9.4 °F 41% 29.87 in 10.0 mi NNE 11.5 mph 16.1 mph N/A   Clear
8:56 AM 10.4 °F -4.1 °F - N/A% 29.88 in 10.0 mi NNE 11.5 mph - N/A   Clear
9:16 AM 10.4 °F -2.4 °F -11.2 °F 37% 29.89 in 10.0 mi NNE 9.2 mph - N/A   Clear
9:36 AM 12.2 °F -1.8 °F -11.2 °F 34% 29.89 in 10.0 mi NNE 11.5 mph - N/A   Clear
9:56 AM 12.2 °F -1.0 °F -11.2 °F 34% 29.90 in 10.0 mi NE 10.4 mph 17.3 mph N/A   Clear
10:16 AM 12.2 °F -2.5 °F -13.0 °F 32% 29.90 in 10.0 mi NE 12.7 mph 18.4 mph N/A   Clear
10:36 AM 12.2 °F -1.8 °F -13.0 °F 32% 29.91 in 10.0 mi North 11.5 mph 16.1 mph N/A   Clear
10:56 AM 12.2 °F -1.0 °F -9.4 °F 38% 29.91 in 10.0 mi NE 10.4 mph 16.1 mph N/A   Clear
11:16 AM 12.2 °F -0.2 °F -11.2 °F 34% 29.92 in 10.0 mi NE 9.2 mph - N/A   Clear
11:36 AM 12.2 °F -1.0 °F -11.2 °F 34% 29.93 in 10.0 mi NE 10.4 mph - N/A   Clear
11:56 AM 14.0 °F 0.5 °F -11.2 °F 32% 29.93 in 10.0 mi NE 11.5 mph - N/A   Clear
12:16 PM 14.0 °F 2.0 °F -11.2 °F 32% 29.94 in 10.0 mi NNE 9.2 mph - N/A   Clear
12:36 PM 14.0 °F 1.2 °F -11.2 °F 32% 29.94 in 10.0 mi NE 10.4 mph - N/A   Clear
12:56 PM 14.0 °F 1.2 °F -14.8 °F 27% 29.95 in 10.0 mi NNE 10.4 mph - N/A   Scattered Clouds
1:16 PM 15.8 °F 5.1 °F -11.2 °F 30% 29.95 in 10.0 mi NE 8.1 mph - N/A   Overcast
1:36 PM 14.0 °F 0.5 °F -11.2 °F 32% 29.95 in 10.0 mi NE 11.5 mph - N/A   Mostly Cloudy
1:56 PM 14.0 °F 1.2 °F -11.2 °F 32% 29.96 in 10.0 mi East 10.4 mph - N/A   Mostly Cloudy
2:16 PM 15.8 °F 2.7 °F -11.2 °F 30% 29.96 in 10.0 mi ENE 11.5 mph - N/A   Scattered Clouds
2:36 PM 15.8 °F 4.2 °F -11.2 °F 30% 29.96 in 10.0 mi ENE 9.2 mph - N/A   Scattered Clouds
2:56 PM 14.0 °F 1.2 °F - N/A% 29.96 in 10.0 mi East 10.4 mph - N/A   Partly Cloudy
3:16 PM 15.8 °F 2.7 °F -11.2 °F 30% 29.96 in 10.0 mi East 11.5 mph - N/A   Partly Cloudy
3:36 PM 15.8 °F 3.4 °F -11.2 °F 30% 29.96 in 10.0 mi East 10.4 mph - N/A   Clear
3:56 PM 14.0 °F 5.1 °F -14.8 °F 27% 29.97 in 10.0 mi East 5.8 mph - N/A   Clear
4:16 PM 14.0 °F 2.9 °F -13.0 °F 29% 29.97 in 10.0 mi ENE 8.1 mph - N/A   Partly Cloudy
4:36 PM 15.8 °F 7.2 °F -14.8 °F 25% 29.97 in 10.0 mi East 5.8 mph - N/A   Mostly Cloudy
4:56 PM 14.0 °F 3.9 °F - N/A% 29.97 in 10.0 mi SSE 6.9 mph - N/A   Mostly Cloudy
5:16 PM 12.2 °F 1.7 °F -11.2 °F 34% 29.97 in 10.0 mi SSE 6.9 mph - N/A   Scattered Clouds
5:36 PM 14.0 °F 6.5 °F -20.2 °F 21% 29.97 in 10.0 mi South 4.6 mph - N/A   Partly Cloudy
5:56 PM 14.0 °F 6.5 °F -13.0 °F 29% 29.98 in 10.0 mi SSE 4.6 mph - N/A   Scattered Clouds
6:16 PM 14.0 °F 6.5 °F -7.6 °F 38% 29.98 in 10.0 mi SSE 4.6 mph - N/A   Mostly Cloudy
6:36 PM 12.2 °F 4.3 °F -5.8 °F 45% 29.98 in 10.0 mi SSE 4.6 mph - N/A   Overcast
6:56 PM 14.0 °F - -5.8 °F 41% 29.98 in 10.0 mi Calm Calm - N/A   Overcast
7:16 PM 14.0 °F - -11.2 °F 32% 29.98 in 10.0 mi Calm Calm - N/A   Mostly Cloudy
7:36 PM 14.0 °F - -9.4 °F 35% 29.97 in 10.0 mi Calm Calm - N/A   Scattered Clouds
7:56 PM 12.2 °F - -11.2 °F 34% 29.97 in 10.0 mi Calm Calm - N/A   Mostly Cloudy
8:16 PM 12.2 °F 6.1 °F -9.4 °F 38% 29.97 in 10.0 mi SSE 3.5 mph - N/A   Overcast
8:36 PM 12.2 °F 6.1 °F -7.6 °F 41% 29.97 in 10.0 mi South 3.5 mph - N/A   Mostly Cloudy
8:56 PM 10.4 °F - -7.6 °F 44% 29.96 in 10.0 mi Calm Calm - N/A   Partly Cloudy
9:16 PM 10.4 °F - -5.8 °F 48% 29.96 in 10.0 mi Calm Calm - N/A   Clear
9:36 PM 10.4 °F - -7.6 °F 44% 29.96 in 10.0 mi Calm Calm - N/A   Clear
9:56 PM 10.4 °F - -7.6 °F 44% 29.96 in 10.0 mi Calm Calm - N/A   Mostly Cloudy
10:16 PM 8.6 °F 2.0 °F -9.4 °F 44% 29.96 in 10.0 mi East 3.5 mph - N/A   Partly Cloudy
10:36 PM 8.6 °F 2.0 °F -7.6 °F 48% 29.96 in 10.0 mi East 3.5 mph - N/A   Partly Cloudy
10:56 PM 8.6 °F 2.0 °F -9.4 °F 44% 29.96 in 10.0 mi East 3.5 mph - N/A   Mostly Cloudy
11:16 PM 8.6 °F - -7.6 °F 48% 29.96 in 10.0 mi Calm Calm - N/A   Overcast
11:36 PM 6.8 °F - -9.4 °F 48% 29.96 in 10.0 mi Calm Calm - N/A   Scattered Clouds
11:56 PM 6.8 °F - -7.6 °F 52% 29.96 in 10.0 mi Calm Calm - N/A   Partly Cloudy